User: anonymous   Login
Location: *
(32.8140°S, 174.6161°E)
Time: 00:24:40
(UTC+00:00)
Language:

Cosmos 2263 Rocket - Orbit

View from above orbital plane
View from above orbital plane
View from above satellite
View from above satellite

Ground track
Ground track

The orbit data is extracted from the following two-line orbital elements,

1 22803U 93059B   20047.54369278 +.00000119 +00000-0 +83140-4 0  9999
2 22803 070.9921 356.1761 0018083 334.6352 025.3882 14.16816734366037
Epoch (UTC): 16 February 2020 13:02:55
Eccentricity: 0.0018083
inclination: 70.9921°
perigee height: 823 km
apogee height: 849 km
right ascension of ascending node: 356.1761°
argument of perigee: 334.6352°
revolutions per day: 14.16816734
mean anomaly at epoch: 25.3882°
orbit number at epoch: 36603

The dashed part of the orbit path shows where the satellite is in the earth's shadow,  

DLR